STARLINK-1653, 46352

Orbit data source: Space-Track

STARLINK-1653, 46352 is a payload satellite owned by SpaceX/Seattle (US) in LEO that was launched on Thu, 03 Sep 2020 UTC via an FALCON 9 launch vehicle from the Air Force Eastern Test Range (AFETR). Payload-class satellites include a variety of spacecraft equipped with specific instruments for various scientific and technological missions. These include communications satellites like Starlink; space stations such as the ISS; scientific satellites like the Hubble; Earth observation satellites from companies like Planet Labs, Umbra, and HawkEye 360; GPS; miniature CubeSats for education and research; and military/defense satellites.

Loading next visibility...
Identifier
46352, 2020-062AD
Orbit
LEO
Country
Flag of USUS
Related business
Manufacturer
SpaceX/Seattle
Mission
Partially operational Commercial Communications
Bus & Motor
STARLINK, Unknown motor
Mass
260 kg wet, ~248 kg dry
Launch date (UTC)
2020-09-03 (6 years ago)
Launch vehicle
FALCON 9
Launch site
Air Force Eastern Test Range (AFETR)
Object type
Payload
Rocket body
Debris
Shape & HBR
Box + 1 Pan, 10.1 m
Radar Cross Section
13.562 m², Large (>1 m²)

Expand to show TLE details & history
Last TLE update: 10 hours ago

TLE from 10 hours ago
0 STARLINK-1653
1 46352U 20062AD  26151.50002315  .00080857  00000-0  52192-3 0  9991
2 46352  53.0392 274.4222 0004914 201.5923 297.9823 15.75428418  5962
Epoch: 2026-05-31T12:00Z
TLE epoch observation values (Epoch: 2026-05-31T12:00:02.000Z)
Latitude
31.34427°
Longitude
-1.69915°
Altitude
343.772 km
Speed
7.708 km/s
True Right ascension
04h 29m 14s
True Declination
31° 10' 56"
Sunlit
Object was in daylight at epoch
Visualization orbit readout
Latitude
Unknown
Longitude
Unknown
Altitude
Unknown
Speed
Unknown
Apparent Right ascension
Unknown
Apparent Declination
Unknown
Sunlit
N/A
Visualization observer readout
Local Sidereal Time
07:20:25
Azimuth
Unknown
Elevation
Unknown
Doppler factor
Unknown
Orbital elements
Apogee altitude
346.997 km
Perigee altitude
340.39 km
Semi-major axis
6,721.831 km
Eccentricity
0.00049
Inclination
53.0392°
RAAN
274.4222°
Arg. of periapsis
201.5923°
True anomaly
297.93256°
Mean anomaly
297.9823°
Eccentric anomaly
297.95743°
Mean motion
3.93833 °/min
Orbital period
91.41 mins
BSTAR
0.00052192
Loading maneuver chart data...
Computing Atmospheric mass density...

Documentation

Showing up to 5 results
|